| time (UTC) | temp C | wind direction | speed KPH | gust KPH | rain 1hr cm | rain 24hr cm | rain mn cm | humidity % | barometer mb |
| 20260904002703 | 26 | 166 | 11.3 | 20.9 | 0.00 | 0.00 | 0.00 | 16 | |
| 20260904001803 | 26 | 168 | 12.9 | 30.6 | 0.00 | 0.00 | 0.00 | 16 | |
| 20260904001112 | 26 | 167 | 14.5 | 33.8 | 0.00 | 0.00 | 0.00 | 17 | |
| 20260904000003 | 26 | 177 | 16.1 | 32.2 | 0.00 | 0.00 | 0.00 | 16 | |
| 20260903235403 | 26 | 185 | 17.7 | 33.8 | 0.00 | 0.00 | 0.00 | 16 | |
| 20260903234503 | 26 | 196 | 16.1 | 37.0 | 0.00 | 0.00 | 0.00 | 17 | |
| 20260903233814 | 26 | 194 | 14.5 | 30.6 | 0.00 | 0.00 | 0.00 | 16 | |
| 20260903232703 | 26 | 183 | 17.7 | 40.2 | 0.00 | 0.00 | 0.00 | 16 | |
| 20260903231803 | 26 | 197 | 16.1 | 32.2 | 0.00 | 0.00 | 0.00 | 17 | |
| 20260903230903 | 26 | 202 | 17.7 | 37.0 | 0.00 | 0.00 | 0.00 | 17 | |
| 20260903230003 | 27 | 190 | 16.1 | 38.6 | 0.00 | 0.00 | 0.00 | 17 | |
| 20260903225403 | 27 | 186 | 16.1 | 35.4 | 0.00 | 0.00 | 0.00 | 17 | |
| 20260903224503 | 27 | 164 | 14.5 | 33.8 | 0.00 | 0.00 | 0.00 | 17 | |
| 20260903223603 | 27 | 179 | 17.7 | 35.4 | 0.00 | 0.00 | 0.00 | 17 | |
| 20260903222704 | 27 | 193 | 19.3 | 35.4 | 0.00 | 0.00 | 0.00 | 17 | |
| 20260903222012 | 27 | 185 | 17.7 | 40.2 | 0.00 | 0.00 | 0.00 | 18 | |
| 20260903221114 | 27 | 178 | 16.1 | 37.0 | 0.00 | 0.00 | 0.00 | 18 | |
| 20260903220003 | 27 | 176 | 16.1 | 33.8 | 0.00 | 0.00 | 0.00 | 17 | |
| 20260903215403 | 27 | 180 | 14.5 | 30.6 | 0.00 | 0.00 | 0.00 | 19 | |
| 20260903214503 | 27 | 185 | 16.1 | 32.2 | 0.00 | 0.00 | 0.00 | 19 | |
| 20260903213603 | 27 | 185 | 17.7 | 35.4 | 0.00 | 0.00 | 0.00 | 19 | |
| 20260903212703 | 27 | 196 | 17.7 | 33.8 | 0.00 | 0.00 | 0.00 | 19 | |
| 20260903211803 | 26 | 199 | 17.7 | 40.2 | 0.00 | 0.00 | 0.00 | 21 | |
| 20260903210903 | 26 | 199 | 19.3 | 33.8 | 0.00 | 0.00 | 0.00 | 20 | |
| 20260903210003 | 26 | 207 | 17.7 | 38.6 | 0.00 | 0.00 | 0.00 | 20 | |
| 20260903205403 | 26 | 192 | 16.1 | 38.6 | 0.00 | 0.00 | 0.00 | 22 | |
| 20260903204503 | 27 | 193 | 17.7 | 33.8 | 0.00 | 0.00 | 0.00 | 22 | |
| 20260903203603 | 27 | 183 | 16.1 | 27.4 | 0.00 | 0.00 | 0.00 | 20 | |
| 20260903202703 | 27 | 177 | 16.1 | 29.0 | 0.00 | 0.00 | 0.00 | 20 | |
| 20260903201803 | 26 | 167 | 16.1 | 38.6 | 0.00 | 0.00 | 0.00 | 22 | |
| 20260903200903 | 26 | 168 | 17.7 | 45.1 | 0.00 | 0.00 | 0.00 | 22 | |
| 20260903200003 | 26 | 155 | 16.1 | 30.6 | 0.00 | 0.00 | 0.00 | 21 | |
| 20260903195614 | 26 | 160 | 14.5 | 30.6 | 0.00 | 0.00 | 0.00 | 21 | |
| 20260903194503 | 26 | 145 | 16.1 | 30.6 | 0.00 | 0.00 | 0.00 | 22 | |
| 20260903193812 | 26 | 152 | 17.7 | 35.4 | 0.00 | 0.00 | 0.00 | 22 | |
| 20260903192703 | 26 | 167 | 17.7 | 38.6 | 0.00 | 0.00 | 0.00 | 22 | |
| 20260903191803 | 25 | 181 | 17.7 | 46.7 | 0.00 | 0.00 | 0.00 | 24 | |
| 20260903190903 | 25 | 155 | 17.7 | 40.2 | 0.00 | 0.00 | 0.00 | 23 | |
| 20260903190003 | 25 | 159 | 19.3 | 37.0 | 0.00 | 0.00 | 0.00 | 23 | |
| 20260903185403 | 25 | 155 | 17.7 | 37.0 | 0.00 | 0.00 | 0.00 | 22 | |
| 20260903184503 | 25 | 171 | 17.7 | 37.0 | 0.00 | 0.00 | 0.00 | 24 | |
| 20260903183603 | 25 | 171 | 17.7 | 35.4 | 0.00 | 0.00 | 0.00 | 24 | |
| 20260903182703 | 24 | 173 | 19.3 | 35.4 | 0.00 | 0.00 | 0.00 | 23 | |
| 20260903181803 | 24 | 182 | 19.3 | 38.6 | 0.00 | 0.00 | 0.00 | 24 | |
| 20260903180903 | 24 | 177 | 16.1 | 33.8 | 0.00 | 0.00 | 0.00 | 26 | |
| 20260903180003 | 24 | 177 | 17.7 | 37.0 | 0.00 | 0.00 | 0.00 | 24 | |
| 20260903175403 | 23 | 178 | 19.3 | 37.0 | 0.00 | 0.00 | 0.00 | 23 | |
| 20260903174503 | 23 | 178 | 17.7 | 37.0 | 0.00 | 0.00 | 0.00 | 24 | |
| 20260903173603 | 23 | 176 | 16.1 | 37.0 | 0.00 | 0.00 | 0.00 | 25 | |
| 20260903172703 | 23 | 195 | 16.1 | 32.2 | 0.00 | 0.00 | 0.00 | 26 | |
| 20260903171803 | 23 | 180 | 14.5 | 33.8 | 0.00 | 0.00 | 0.00 | 25 | |
| 20260903171114 | 23 | 182 | 16.1 | 33.8 | 0.00 | 0.00 | 0.00 | 25 | |
| 20260903170213 | 23 | 177 | 17.7 | 40.2 | 0.00 | 0.00 | 0.00 | 24 | |
| 20260903165403 | 23 | 172 | 14.5 | 29.0 | 0.00 | 0.00 | 0.00 | 24 | |
| 20260903164503 | 23 | 170 | 14.5 | 30.6 | 0.00 | 0.00 | 0.00 | 27 | |
| 20260903163813 | 22 | 165 | 14.5 | 30.6 | 0.00 | 0.00 | 0.00 | 26 | |
| 20260903162704 | 22 | 171 | 16.1 | 32.2 | 0.00 | 0.00 | 0.00 | 29 | |
| 20260903161803 | 22 | 170 | 16.1 | 32.2 | 0.00 | 0.00 | 0.00 | 28 | |
| 20260903160903 | 22 | 178 | 12.9 | 29.0 | 0.00 | 0.00 | 0.00 | 29 | |
| 20260903160003 | 21 | 198 | 11.3 | 22.5 | 0.00 | 0.00 | 0.00 | 30 | |
| 20260903155403 | 21 | 188 | 12.9 | 33.8 | 0.00 | 0.00 | 0.00 | 29 | |
| 20260903154503 | 21 | 185 | 11.3 | 25.7 | 0.00 | 0.00 | 0.00 | 28 | |
| 20260903153603 | 20 | 185 | 11.3 | 24.1 | 0.00 | 0.00 | 0.00 | 28 | |
| 20260903152703 | 20 | 182 | 9.7 | 25.7 | 0.00 | 0.00 | 0.00 | 27 | |
| 20260903151803 | 20 | 190 | 8.0 | 17.7 | 0.00 | 0.00 | 0.00 | 28 | |
| 20260903150903 | 19 | 205 | 6.4 | 14.5 | 0.00 | 0.00 | 0.00 | 27 | |
| 20260903150003 | 18 | 203 | 4.8 | 11.3 | 0.00 | 0.00 | 0.00 | 27 | |
| 20260903145403 | 18 | 197 | 6.4 | 16.1 | 0.00 | 0.00 | 0.00 | 28 | |
| 20260903144713 | 18 | 184 | 4.8 | 9.7 | 0.00 | 0.00 | 0.00 | 26 | |
| 20260903143603 | 17 | 169 | 3.2 | 8.0 | 0.00 | 0.00 | 0.00 | 28 | |
| 20260903142703 | 16 | 195 | 3.2 | 11.3 | 0.00 | 0.00 | 0.00 | 28 | |
| 20260903141803 | 14 | 248 | 1.6 | 6.4 | 0.00 | 0.00 | 0.00 | 32 | |
| 20260903141113 | 13 | 254 | 3.2 | 6.4 | 0.00 | 0.00 | 0.00 | 33 | |
| 20260903140003 | 13 | 198 | 3.2 | 8.0 | 0.00 | 0.00 | 0.00 | 36 | |
| 20260903135403 | 13 | 151 | 4.8 | 9.7 | 0.00 | 0.00 | 0.00 | 34 | |
| 20260903134503 | 11 | 191 | 1.6 | 9.7 | 0.00 | 0.00 | 0.00 | 34 | |
| 20260903133603 | 10 | 220 | 0.0 | 3.2 | 0.00 | 0.00 | 0.00 | 38 | |
| 20260903132703 | 10 | 220 | 0.0 | 4.8 | 0.00 | 0.00 | 0.00 | 40 | |
| 20260903132013 | 10 | 220 | 1.6 | 4.8 | 0.00 | 0.00 | 0.00 | 40 | |
| 20260903130904 | 9 | 220 | 0.0 | 3.2 | 0.00 | 0.00 | 0.00 | 41 | |
| 20260903130003 | 9 | 220 | 1.6 | 4.8 | 0.00 | 0.00 | 0.00 | 42 | |
| 20260903125403 | 9 | 220 | 1.6 | 4.8 | 0.00 | 0.00 | 0.00 | 41 | |
| 20260903124503 | 9 | 211 | 1.6 | 6.4 | 0.00 | 0.00 | 0.00 | 42 | |
| 20260903123814 | 9 | 0 | 0.0 | 0.0 | 0.00 | 0.00 | 0.00 | 43 | |
| 20260903122703 | 8 | 163 | 0.0 | 4.8 | 0.00 | 0.00 | 0.00 | 43 | |
| 20260903121803 | 8 | 0 | 0.0 | 0.0 | 0.00 | 0.00 | 0.00 | 44 | |
| 20260903120903 | 8 | 0 | 0.0 | 0.0 | 0.00 | 0.00 | 0.00 | 42 | |
| 20260903120003 | 9 | 163 | 0.0 | 1.6 | 0.00 | 0.00 | 0.00 | 41 | |
| 20260903115403 | 10 | 163 | 0.0 | 1.6 | 0.00 | 0.00 | 0.00 | 40 | |
| 20260903114503 | 10 | 163 | 0.0 | 3.2 | 0.00 | 0.00 | 0.00 | 39 | |
| 20260903113814 | 11 | 163 | 0.0 | 1.6 | 0.00 | 0.00 | 0.00 | 37 | |
| 20260903112913 | 11 | 0 | 0.0 | 0.0 | 0.00 | 0.00 | 0.00 | 36 | |
| 20260903111803 | 13 | 163 | 1.6 | 4.8 | 0.00 | 0.00 | 0.00 | 32 | |
| 20260903110903 | 14 | 163 | 1.6 | 4.8 | 0.00 | 0.00 | 0.00 | 31 | |
| 20260903110003 | 15 | 176 | 3.2 | 9.7 | 0.00 | 0.00 | 0.00 | 28 | |
| 20260903105403 | 15 | 177 | 3.2 | 14.5 | 0.00 | 0.00 | 0.00 | 28 | |
| 20260903104714 | 15 | 174 | 3.2 | 14.5 | 0.00 | 0.00 | 0.00 | 27 | |
| 20260903103813 | 15 | 181 | 3.2 | 8.0 | 0.00 | 0.00 | 0.00 | 27 | |
| 20260903102703 | 15 | 180 | 3.2 | 11.3 | 0.00 | 0.00 | 0.00 | 27 | |
| 20260903101803 | 15 | 162 | 3.2 | 9.7 | 0.00 | 0.00 | 0.00 | 27 | |
| 20260903100903 | 15 | 156 | 4.8 | 11.3 | 0.00 | 0.00 | 0.00 | 27 | |
| 20260903100212 | 15 | 148 | 4.8 | 11.3 | 0.00 | 0.00 | 0.00 | 27 | |
| 20260903095403 | 15 | 139 | 4.8 | 11.3 | 0.00 | 0.00 | 0.00 | 28 | |
| 20260903094503 | 12 | 136 | 3.2 | 8.0 | 0.00 | 0.00 | 0.00 | 32 | |
| 20260903093603 | 11 | 330 | 0.0 | 3.2 | 0.00 | 0.00 | 0.00 | 36 | |
| 20260903092703 | 11 | 0 | 0.0 | 0.0 | 0.00 | 0.00 | 0.00 | 39 | |
| 20260903091803 | 11 | 330 | 1.6 | 6.4 | 0.00 | 0.00 | 0.00 | 40 | |
| 20260903090903 | 11 | 330 | 1.6 | 6.4 | 0.00 | 0.00 | 0.00 | 42 | |
| 20260903090003 | 11 | 330 | 1.6 | 4.8 | 0.00 | 0.00 | 0.00 | 42 | |
| 20260903085614 | 12 | 330 | 1.6 | 4.8 | 0.00 | 0.00 | 0.00 | 41 | |
| 20260903084503 | 12 | 330 | 1.6 | 4.8 | 0.00 | 0.00 | 0.00 | 37 | |
| 20260903083603 | 11 | 330 | 1.6 | 4.8 | 0.00 | 0.00 | 0.00 | 37 | |
| 20260903082703 | 11 | 330 | 1.6 | 3.2 | 0.00 | 0.00 | 0.00 | 38 | |
| 20260903081803 | 11 | 330 | 0.0 | 3.2 | 0.00 | 0.00 | 0.00 | 37 | |
| 20260903081113 | 12 | 0 | 0.0 | 0.0 | 0.00 | 0.00 | 0.00 | 36 | |
| 20260903080004 | 12 | 330 | 1.6 | 3.2 | 0.00 | 0.00 | 0.00 | 35 | |
| 20260903075403 | 12 | 330 | 1.6 | 3.2 | 0.00 | 0.00 | 0.00 | 33 | |
| 20260903074503 | 13 | 330 | 3.2 | 6.4 | 0.00 | 0.00 | 0.00 | 33 | |
| 20260903073603 | 13 | 330 | 4.8 | 11.3 | 0.00 | 0.00 | 0.00 | 34 | |
| 20260903072913 | 13 | 333 | 6.4 | 9.7 | 0.00 | 0.00 | 0.00 | 34 | |
| 20260903071803 | 13 | 332 | 4.8 | 11.3 | 0.00 | 0.00 | 0.00 | 35 | |
| 20260903070903 | 12 | 257 | 3.2 | 11.3 | 0.00 | 0.00 | 0.00 | 33 | |
| 20260903070004 | 13 | 217 | 3.2 | 6.4 | 0.00 | 0.00 | 0.00 | 35 | |
| 20260903065403 | 13 | 217 | 3.2 | 6.4 | 0.00 | 0.00 | 0.00 | 32 | |
| 20260903064503 | 14 | 217 | 3.2 | 4.8 | 0.00 | 0.00 | 0.00 | 29 | |
| 20260903063603 | 15 | 216 | 1.6 | 6.4 | 0.00 | 0.00 | 0.00 | 27 | |
| 20260903062703 | 15 | 216 | 1.6 | 6.4 | 0.00 | 0.00 | 0.00 | 26 | |
| 20260903061803 | 15 | 213 | 3.2 | 6.4 | 0.00 | 0.00 | 0.00 | 26 | |
| 20260903060903 | 16 | 184 | 4.8 | 11.3 | 0.00 | 0.00 | 0.00 | 26 | |
| 20260903060007 | 16 | 155 | 3.2 | 8.0 | 0.00 | 0.00 | 0.00 | 25 | |
| 20260903055613 | 16 | 168 | 3.2 | 8.0 | 0.00 | 0.00 | 0.00 | 25 | |
| 20260903054714 | 16 | 183 | 4.8 | 9.7 | 0.00 | 0.00 | 0.00 | 25 | |
| 20260903053603 | 16 | 233 | 1.6 | 6.4 | 0.00 | 0.00 | 0.00 | 24 | |
| 20260903052703 | 17 | 215 | 1.6 | 8.0 | 0.00 | 0.00 | 0.00 | 23 | |
| 20260903052014 | 18 | 179 | 3.2 | 8.0 | 0.00 | 0.00 | 0.00 | 24 | |
| 20260903050903 | 18 | 152 | 4.8 | 11.3 | 0.00 | 0.00 | 0.00 | 21 | |
| 20260903050003 | 17 | 142 | 4.8 | 9.7 | 0.00 | 0.00 | 0.00 | 22 | |
| 20260903045403 | 17 | 148 | 3.2 | 8.0 | 0.00 | 0.00 | 0.00 | 23 | |
| 20260903044714 | 17 | 149 | 3.2 | 6.4 | 0.00 | 0.00 | 0.00 | 23 | |
| 20260903043603 | 17 | 149 | 3.2 | 8.0 | 0.00 | 0.00 | 0.00 | 23 | |
| 20260903042703 | 17 | 185 | 1.6 | 6.4 | 0.00 | 0.00 | 0.00 | 23 | |
| 20260903041803 | 17 | 188 | 1.6 | 4.8 | 0.00 | 0.00 | 0.00 | 23 | |
| 20260903040903 | 17 | 190 | 3.2 | 8.0 | 0.00 | 0.00 | 0.00 | 23 | |
| 20260903040212 | 17 | 192 | 3.2 | 6.4 | 0.00 | 0.00 | 0.00 | 24 | |
| 20260903035614 | 17 | 194 | 4.8 | 8.0 | 0.00 | 0.00 | 0.00 | 23 | |
| 20260903034503 | 18 | 196 | 4.8 | 9.7 | 0.00 | 0.00 | 0.00 | 22 | |
| 20260903033603 | 18 | 187 | 4.8 | 9.7 | 0.00 | 0.00 | 0.00 | 22 | |
| 20260903032703 | 18 | 184 | 4.8 | 8.0 | 0.00 | 0.00 | 0.00 | 23 | |
| 20260903032013 | 18 | 181 | 4.8 | 9.7 | 0.00 | 0.00 | 0.00 | 23 | |
| 20260903030903 | 18 | 176 | 4.8 | 9.7 | 0.00 | 0.00 | 0.00 | 22 | |
| 20260903030004 | 19 | 194 | 6.4 | 16.1 | 0.00 | 0.00 | 0.00 | 22 | |
| 20260903025403 | 20 | 189 | 8.0 | 17.7 | 0.00 | 0.00 | 0.00 | 21 | |
| 20260903024503 | 20 | 176 | 8.0 | 17.7 | 0.00 | 0.00 | 0.00 | 21 | |
| 20260903023603 | 20 | 182 | 6.4 | 9.7 | 0.00 | 0.00 | 0.00 | 21 | |
| 20260903022703 | 20 | 177 | 4.8 | 11.3 | 0.00 | 0.00 | 0.00 | 21 | |
| 20260903022013 | 20 | 182 | 4.8 | 11.3 | 0.00 | 0.00 | 0.00 | 20 | |
| 20260903020903 | 21 | 185 | 6.4 | 17.7 | 0.00 | 0.00 | 0.00 | 20 | |
| 20260903020003 | 22 | 188 | 8.0 | 17.7 | 0.00 | 0.00 | 0.00 | 19 | |
| 20260903015613 | 22 | 186 | 8.0 | 19.3 | 0.00 | 0.00 | 0.00 | 19 | |
| 20260903014503 | 22 | 188 | 11.3 | 32.2 | 0.00 | 0.00 | 0.00 | 18 | |
| 20260903013814 | 23 | 190 | 11.3 | 24.1 | 0.00 | 0.00 | 0.00 | 18 | |
| 20260903012704 | 23 | 183 | 14.5 | 27.4 | 0.00 | 0.00 | 0.00 | 17 | |
| 20260903011803 | 23 | 190 | 14.5 | 30.6 | 0.00 | 0.00 | 0.00 | 17 | |
| 20260903010903 | 24 | 191 | 14.5 | 30.6 | 0.00 | 0.00 | 0.00 | 17 | |
| 20260903010213 | 24 | 188 | 17.7 | 45.1 | 0.00 | 0.00 | 0.00 | 16 | |
| 20260903005403 | 25 | 189 | 14.5 | 35.4 | 0.00 | 0.00 | 0.00 | 17 | |
| 20260903004503 | 25 | 191 | 12.9 | 32.2 | 0.00 | 0.00 | 0.00 | 17 | |
| 20260903003603 | 25 | 180 | 16.1 | 35.4 | 0.00 | 0.00 | 0.00 | 17 |